Location: Newark
(45.0500°N, 41.9667°E)
Time: 08:09:04
(UTC+00:00)

Starlink (trailer) - Visible Passes

Search period start: 22 July 2019 00:00
Search period end: 01 August 2019 00:00
Orbit: 548 x 551 km, 53.0° (Epoch: 21 July)

Date Brightness Start Highest point End Pass type
(mag) Time Alt. Az. Time Alt. Az. Time Alt. Az.
22 Jul 5.6 00:41:46 10° WNW 00:45:20 27° N 00:48:54 10° NE visible
22 Jul 5.2 21:22:07 26° ENE 21:22:07 26° ENE 21:24:06 10° ENE visible
22 Jul 4.7 22:57:44 24° WNW 22:59:45 42° NNW 23:03:43 10° NE visible
23 Jul 5.6 00:36:31 10° WNW 00:40:04 26° N 00:43:38 10° ENE visible
23 Jul 5.0 21:16:27 31° ENE 21:16:27 31° ENE 21:18:45 10° ENE visible
23 Jul 5.0 22:52:04 20° WNW 22:54:26 37° NNW 22:58:18 10° NE visible
24 Jul 5.7 00:31:15 10° NW 00:34:49 27° N 00:38:23 10° ENE visible
24 Jul 4.7 21:10:43 38° ENE 21:10:43 38° ENE 21:13:22 10° ENE visible
24 Jul 5.2 22:46:19 16° WNW 22:49:07 33° NNW 22:52:55 10° NE visible
25 Jul 5.7 00:25:57 10° NW 00:29:33 28° N 00:33:09 10° ENE visible
25 Jul 4.3 21:04:52 48° NE 21:04:52 48° NE 21:07:58 10° NE visible
25 Jul 5.4 22:40:28 12° WNW 22:43:50 30° NNW 22:47:32 10° NE visible
26 Jul 5.6 00:20:36 10° NW 00:24:16 29° N 00:27:56 10° ENE visible
26 Jul 4.1 20:58:52 58° N 20:58:52 58° N 21:02:32 10° NE visible
26 Jul 5.6 22:34:56 10° WNW 22:38:34 28° N 22:42:11 10° NE visible
27 Jul 5.5 00:15:14 10° NW 00:19:00 32° NNE 00:22:44 10° ENE visible
27 Jul 6.0 19:17:01 12° ENE 19:17:01 12° ENE 19:17:20 10° ENE visible
27 Jul 4.3 20:52:35 49° NW 20:53:02 52° NNW 20:57:07 10° NE visible
27 Jul 5.7 22:29:42 10° WNW 22:33:17 27° N 22:36:52 10° NE visible
28 Jul 5.3 00:09:51 10° NW 00:13:42 35° NNE 00:17:32 10° E visible
28 Jul 4.9 19:10:01 26° E 19:10:01 26° E 19:12:03 10° ENE visible
28 Jul 4.7 20:45:28 23° W 20:47:42 43° NNW 20:51:41 10° NE visible
28 Jul 5.7 22:24:27 10° WNW 22:28:02 27° N 22:31:34 10° ENE visible
29 Jul 5.0 00:04:27 10° NW 00:08:23 40° NNE 00:12:18 10° E visible
29 Jul 5.6 17:23:21 10° SE 17:23:45 10° SE 17:24:10 10° ESE visible
29 Jul 3.5 18:58:31 10° SW 19:02:36 61° SE 19:06:42 10° ENE visible
29 Jul 5.0 20:38:29 10° W 20:42:22 38° NNW 20:46:16 10° NE visible
29 Jul 5.8 22:19:12 10° WNW 22:22:45 27° N 22:26:19 10° ENE visible
29 Jul 4.7 23:59:01 10° NW 00:03:02 47° NNE 00:07:03 10° E visible
30 Jul 5.3 17:15:57 10° SSE 17:18:10 14° SE 17:20:22 10° E visible
30 Jul 3.4 18:53:01 10° SW 18:57:10 79° SE 19:01:19 10° ENE visible
30 Jul 5.3 20:33:16 10° W 20:37:04 33° NNW 20:40:52 10° NE visible
30 Jul 5.7 22:13:53 10° NW 22:17:28 27° N 22:21:05 10° ENE visible
30 Jul 4.3 23:53:35 10° NW 23:57:41 57° NNE 00:01:46 10° ESE visible
31 Jul 5.0 17:09:38 10° S 17:12:35 19° SE 17:15:32 10° E visible
31 Jul 3.6 18:47:35 10° WSW 18:51:44 82° NNW 18:55:55 10° ENE visible
31 Jul 5.5 20:28:03 10° WNW 20:31:46 30° NNW 20:35:29 10° NE visible
31 Jul 5.6 22:08:32 10° NW 22:12:12 29° N 22:15:52 10° ENE visible
31 Jul 3.9 23:48:09 10° NW 23:52:18 70° NNE 23:56:26 10° ESE visible
